Weather in Khotush'

Russia / Tula Oblast     54°32′31″N   37°44′22″E
temp.,
°C
wind,
m/s
gust,
m/s
humid.,
%
clouds,
%
prec.,
mm/h
press.,
hPa
HPBL,
m
11 april, sun
sun1100:00+3ssw35630 0.0 102772
03:00+2sw34680 0.0 102748
06:00+2wsw33720 0.0 102836
09:00+7sw23570 0.0 1030233
12:00+11sw21430 0.0 1030864
15:00+13w01390 0.0 10301221
18:00+13ene23474 0.0 103086
21:00+8e33613 0.0 103238
12 april, mon
mon1200:00+6e34685 0.0 103346
03:00+5e3772100 0.0 1033120
06:00+4ene51278100 0.0 1033266
09:00+7e71554100 0.0 1032540
12:00+11e81163100 0.0 1030703
15:00+12ese6869100 0.0 1029680
18:00+12ese597595 0.0 1028582
21:00+8e4109262 0.0 1028184
13 april, tue
tue1300:00+8ese5119270 0.0 1026198
03:00+8se498755 0.0 1026136
06:00+7sse498488 0.0 1026133
09:00+12sse51164100 0.0 1025299
12:00+16sse694595 0.0 1025587
15:00+19sse673792 0.0 10241791
18:00+16sse37455 0.0 1023141
21:00+12se345765 0.0 102439
14 april, wed
wed1400:00+10se48675 0.0 1023124
03:00+9sse4117150 0.0 1023173
06:00+8sse487595 0.0 1023112
09:00+13sse595694 0.0 1022308
12:00+17se5740100 0.0 1021645
15:00+18sse673311 0.0 10201431
18:00+16se474287 0.0 1019202
21:00+12se3455100 0.0 101945
15 april, thu
thu1500:00+10se3362100 0.0 101838
03:00+9se3368100 0.0 101838
06:00+8sse3671100 0.0 101886
09:00+11se2366100 0.0 1017110
12:00+15sse3448100 0.0 1017562
15:00+17ene1145100 0.0 1016754
18:00+15ne3356100 0.0 101665
21:00+11nne41070100 0.0 1016170